Location: Carbonear
(47.7333°N, 53.2500°W)
Time: 08:51:22
(UTC+00:00)

FO-29 - Visible Passes

Search period start: 27 November 2022 00:00
Search period end: 07 December 2022 00:00
Orbit: 801 x 1321 km, 98.5° (Epoch: 26 November)

Date Brightness Start Highest point End Pass type
(mag) Time Alt. Az. Time Alt. Az. Time Alt. Az.
27 Nov 11.8 08:28:37 10° NE 08:34:05 25° E 08:39:03 10° SE visible
27 Nov 9.7 10:12:57 10° N 10:19:49 64° WNW 10:25:49 10° SSW visible
27 Nov 10.2 20:25:39 10° SSE 20:33:32 83° ENE 20:41:17 10° NNW visible
27 Nov 12.2 22:13:08 10° SW 22:19:17 25° W 22:25:23 10° NW visible
28 Nov 10.4 09:17:58 10° NNE 09:24:41 57° E 09:30:34 10° S visible
28 Nov 11.0 21:16:04 10° S 21:23:41 52° W 21:31:12 10° NNW visible
28 Nov 13.0 23:09:12 10° W 23:10:21 10° WNW 23:11:30 10° WNW visible
29 Nov 11.9 08:23:47 10° NE 08:28:56 23° E 08:33:37 10° SE visible
29 Nov 9.6 10:07:59 10° N 10:14:46 68° WNW 10:20:40 10° SSW visible
29 Nov 10.1 20:20:42 10° SSE 20:28:35 80° ENE 20:36:15 10° NNW visible
29 Nov 12.2 22:07:56 10° SW 22:14:14 26° W 22:20:28 10° NW visible
30 Nov 10.4 09:13:02 10° NNE 09:19:35 52° E 09:25:18 10° S visible
30 Nov 10.9 21:11:00 10° S 21:18:41 55° W 21:26:11 10° NNW visible
30 Nov 13.0 23:03:08 10° W 23:05:15 11° W 23:07:22 10° WNW visible
01 Dec 12.0 08:18:59 10° NE 08:23:47 21° E 08:28:10 10° SE visible
01 Dec 9.5 10:03:01 10° N 10:09:41 72° WNW 10:15:31 10° SSW visible
01 Dec 10.1 20:15:46 10° SSE 20:23:37 76° ENE 20:31:12 10° NNW visible
01 Dec 12.1 22:02:45 10° SW 22:09:12 27° W 22:15:32 10° NNW visible
02 Dec 10.5 09:08:07 10° NNE 09:14:27 48° E 09:20:02 10° S visible
02 Dec 10.8 21:05:58 10° S 21:13:42 58° W 21:21:10 10° NNW visible
02 Dec 12.9 22:57:25 10° W 23:00:09 12° W 23:02:52 10° WNW visible
03 Dec 12.0 08:14:11 10° NE 08:18:36 19° E 08:22:41 10° SE visible
03 Dec 9.5 09:58:03 10° NNE 10:04:36 76° WNW 10:10:21 10° SSW visible
03 Dec 10.1 20:10:51 10° SSE 20:18:40 72° ENE 20:26:08 10° N visible
03 Dec 12.0 21:57:36 10° SSW 22:04:10 29° W 22:10:34 10° NNW visible
04 Dec 10.6 09:03:11 10° NNE 09:09:19 45° E 09:14:45 10° SSE visible
04 Dec 10.7 21:00:57 10° S 21:08:43 61° W 21:16:08 10° NNW visible
04 Dec 12.9 22:51:52 10° WSW 22:55:04 13° W 22:58:13 10° WNW visible
05 Dec 12.1 08:09:25 10° NE 08:13:25 17° E 08:17:09 10° SE visible
05 Dec 9.4 09:53:04 10° NNE 09:59:31 81° WNW 10:05:10 10° SSW visible
05 Dec 10.1 20:05:56 10° SSE 20:13:42 69° ENE 20:21:02 10° N visible
05 Dec 11.9 21:52:27 10° SSW 21:59:08 30° W 22:05:35 10° NNW visible
06 Dec 10.8 08:58:15 10° NNE 09:04:10 41° E 09:09:26 10° SSE visible
06 Dec 10.6 20:55:57 10° S 21:03:44 64° W 21:11:05 10° NNW visible
06 Dec 12.8 22:46:25 10° WSW 22:49:59 14° W 22:53:29 10° NW visible
